W5GED Weather Reports


time (UTC)temp
C
wind
direction
speed
KPH
gust
KPH
rain 1hr
cm
rain 24hr
cm
rain mn
cm
humidity
%
barometer
mb
20260506113546 23 175 1.6 3.2 0.00 0.00 0.00 95 1008.7
20260506112526 23 179 1.6 3.2 0.00 0.00 0.00 95 1008.7
20260506111527 23 125 1.6 3.2 0.00 0.00 0.00 95 1008.5
20260506110526 23 110 1.6 3.2 0.00 0.00 0.00 95 1008.5
20260506105527 23 133 1.6 3.2 0.00 0.00 0.00 95 1008.3
20260506104527 23 49 0.0 1.6 0.00 0.00 0.00 95 1008.3
20260506103527 23 151 1.6 3.2 0.00 0.00 0.00 94 1008.3
20260506102527 23 171 1.6 3.2 0.00 0.00 0.00 94 1008.4
20260506101547 23 182 1.6 3.2 0.00 0.00 0.00 94 1008.4
20260506100528 23 177 3.2 4.8 0.00 0.00 0.00 94 1008.2
20260506095547 23 175 3.2 4.8 0.00 0.00 0.00 93 1008.2
20260506094528 23 189 1.6 3.2 0.00 0.00 0.00 93 1008.1
20260506093528 23 161 1.6 3.2 0.00 0.00 0.00 93 1008.0
20260506092528 24 193 3.2 6.4 0.00 0.00 0.00 92 1008.0
20260506091528 24 177 3.2 4.8 0.00 0.00 0.00 92 1008.0
20260506090528 24 179 3.2 6.4 0.00 0.00 0.00 92 1008.2
20260506085528 24 104 3.2 4.8 0.00 0.00 0.00 92 1008.2
20260506084529 24 185 1.6 4.8 0.00 0.00 0.00 91 1008.2
20260506083530 24 209 1.6 4.8 0.00 0.00 0.00 91 1008.3
20260506082609 24 183 1.6 4.8 0.00 0.00 0.00 91 1008.3
20260506081529 24 174 3.2 4.8 0.00 0.00 0.00 91 1008.4
20260506080529 24 176 3.2 4.8 0.00 0.00 0.00 91 1008.4
20260506072529 25 166 1.6 6.4 0.00 0.00 0.00 91 1008.8
20260506071530 25 169 3.2 6.4 0.00 0.00 0.00 91 1008.8
20260506070530 25 169 3.2 4.8 0.00 0.00 0.00 91 1008.9
20260506061531 25 62 1.6 3.2 0.00 0.00 0.00 91 1009.2
20260506060531 25 225 1.6 3.2 0.00 0.00 0.00 91 1009.3
20260506050516 25 171 3.2 4.8 0.00 0.00 0.00 90 1009.0
20260506044517 25 161 1.6 3.2 0.00 0.00 0.00 90 1009.2
20260506043517 25 196 1.6 1.6 0.00 0.00 0.00 89 1009.2
20260506042517 25 164 1.6 6.4 0.00 0.00 0.00 89 1009.1
20260506041532 25 221 3.2 6.4 0.00 0.00 0.00 88 1009.0
20260506040532 25 172 3.2 6.4 0.00 0.00 0.00 87 1008.9
20260506035517 25 211 1.6 3.2 0.00 0.00 0.00 87 1009.1
20260506034517 25 207 3.2 6.4 0.00 0.00 0.00 87 1008.9
20260506033520 25 162 3.2 8.0 0.00 0.00 0.00 87 1008.6
20260506032518 25 146 1.6 4.8 0.00 0.00 0.00 86 1008.4
20260506031521 25 138 3.2 8.0 0.00 0.00 0.00 86 1008.3
20260506030518 25 179 3.2 8.0 0.00 0.00 0.00 86 1008.4
20260506025518 25 164 3.2 6.4 0.00 0.00 0.00 86 1008.3
20260506024518 25 186 3.2 8.0 0.00 0.00 0.00 86 1008.2
20260506023518 25 153 3.2 6.4 0.00 0.00 0.00 86 1008.1
20260506022521 25 158 3.2 8.0 0.00 0.00 0.00 85 1007.9
20260506021518 25 175 3.2 6.4 0.00 0.00 0.00 86 1007.8
20260506020518 26 179 4.8 6.4 0.00 0.00 0.00 85 1007.7
20260506015518 26 168 3.2 6.4 0.00 0.00 0.00 84 1007.6
20260506014518 26 174 3.2 6.4 0.00 0.00 0.00 83 1007.4
20260506013519 26 164 3.2 8.0 0.00 0.00 0.00 82 1007.3
20260506012522 26 150 3.2 11.3 0.00 0.00 0.00 82 1007.1
20260506011519 26 184 3.2 4.8 0.00 0.00 0.00 81 1006.9
20260506010519 26 171 3.2 6.4 0.00 0.00 0.00 81 1006.8
20260506005519 26 169 3.2 8.0 0.00 0.00 0.00 80 1006.7
20260506004520 26 177 1.6 4.8 0.00 0.00 0.00 78 1006.8
20260506003522 26 175 4.8 11.3 0.00 0.00 0.00 78 1006.6
20260506002523 27 171 4.8 9.7 0.00 0.00 0.00 78 1006.5
20260506001523 27 176 4.8 9.7 0.00 0.00 0.00 77 1006.5
20260506000517 27 169 4.8 11.3 0.00 0.00 0.00 78 1006.6
20260505235557 27 180 3.2 8.0 0.00 0.00 0.00 78 1006.5
20260505234517 27 171 4.8 8.0 0.00 0.00 0.00 77 1006.4
20260505233540 27 173 4.8 8.0 0.00 0.00 0.00 78 1006.4
20260505232540 27 178 4.8 11.3 0.00 0.00 0.00 78 1006.5
20260505231518 27 176 4.8 12.9 0.00 0.00 0.00 77 1006.5
20260505230518 27 174 3.2 9.7 0.00 0.00 0.00 78 1006.5
20260505225518 27 178 4.8 11.3 0.00 0.00 0.00 78 1006.5
20260505224558 27 159 4.8 12.9 0.00 0.00 0.00 78 1006.6
20260505223518 28 175 4.8 16.1 0.00 0.00 0.00 76 1006.6
20260505222518 28 174 4.8 12.9 0.00 0.00 0.00 77 1006.6
20260505221518 27 169 4.8 12.9 0.00 0.00 0.00 77 1006.6
20260505220519 28 188 4.8 11.3 0.00 0.00 0.00 76 1006.7
20260505215519 28 166 4.8 11.3 0.00 0.00 0.00 75 1006.8
20260505214519 28 170 4.8 14.5 0.00 0.00 0.00 75 1006.9
20260505213539 28 157 4.8 14.5 0.00 0.00 0.00 75 1007.0
20260505212519 28 170 4.8 12.9 0.00 0.00 0.00 75 1007.1
20260505211539 28 165 4.8 11.3 0.00 0.00 0.00 76 1007.2
20260505210519 28 165 4.8 11.3 0.00 0.00 0.00 75 1007.4
20260505205516 28 173 6.4 12.9 0.00 0.00 0.00 75 1007.5
20260505204557 28 176 6.4 17.7 0.00 0.00 0.00 74 1007.7
20260505203519 28 169 4.8 11.3 0.00 0.00 0.00 74 1007.8
20260505202540 28 165 6.4 16.1 0.00 0.00 0.00 75 1008.0
20260505201520 28 170 6.4 12.9 0.00 0.00 0.00 74 1008.1
20260505200517 28 178 6.4 17.7 0.00 0.00 0.00 74 1008.2
20260505195517 28 168 6.4 14.5 0.00 0.00 0.00 75 1008.2
20260505194520 27 161 4.8 11.3 0.00 0.00 0.00 77 1008.4
20260505193520 27 171 6.4 12.9 0.00 0.00 0.00 77 1008.4
20260505192520 27 193 4.8 9.7 0.00 0.00 0.00 77 1008.5
20260505191520 27 181 6.4 8.0 0.00 0.00 0.00 78 1008.6
20260505190521 27 185 4.8 8.0 0.00 0.00 0.00 78 1008.6
20260505185521 27 171 4.8 11.3 0.00 0.00 0.00 78 1008.6
20260505184521 27 154 4.8 11.3 0.00 0.00 0.00 78 1008.7
20260505183521 27 161 4.8 9.7 0.00 0.00 0.00 77 1008.7
20260505182524 27 168 3.2 8.0 0.00 0.00 0.00 78 1008.8
20260505181541 26 163 6.4 11.3 0.00 0.00 0.00 79 1008.9
20260505180521 26 174 6.4 9.7 0.00 0.00 0.00 80 1009.0
20260505175521 26 174 6.4 11.3 0.00 0.00 0.00 80 1009.1
20260505174521 26 178 4.8 8.0 0.00 0.00 0.00 80 1009.2
20260505173522 26 159 4.8 11.3 0.00 0.00 0.00 81 1009.3
20260505172522 26 169 4.8 11.3 0.00 0.00 0.00 81 1009.3
20260505171522 26 165 4.8 9.7 0.00 0.00 0.00 80 1009.2
20260505170545 26 170 3.2 8.0 0.00 0.00 0.00 81 1009.3
20260505165525 26 168 3.2 6.4 0.00 0.00 0.00 81 1009.4
20260505164517 26 178 6.4 14.5 0.00 0.00 0.00 82 1009.3
20260505163516 25 171 4.8 16.1 0.00 0.00 0.00 85 1009.3
20260505162525 25 166 3.2 6.4 0.00 0.00 0.00 88 1009.4
20260505161516 25 160 4.8 9.7 0.00 0.00 0.00 87 1009.3
20260505160522 25 156 4.8 9.7 0.00 0.00 0.00 85 1009.2
20260505152526 25 178 4.8 8.0 0.00 0.00 0.00 86 1009.0
20260505151517 25 153 3.2 9.7 0.00 0.00 0.00 86 1009.1
20260505150517 24 163 4.8 11.3 0.00 0.00 0.00 87 1009.0
20260505140526 23 170 3.2 4.8 0.00 0.00 0.00 89 1008.8
20260505124528 22 170 1.6 4.8 0.00 0.00 0.00 93 1008.7
20260505123527 21 165 1.6 3.2 0.00 0.00 0.00 94 1008.7
20260505122528 21 165 1.6 3.2 0.00 0.00 0.00 94 1008.6
20260505121528 21 199 1.6 4.8 0.00 0.00 0.00 94 1008.5
20260505120528 21 181 1.6 3.2 0.00 0.00 0.00 94 1008.3
20260505115548 21 173 1.6 4.8 0.00 0.00 0.00 94 1008.1
20260505114528 21 193 1.6 3.2 0.00 0.00 0.00 94 1008.3